EJU862V LFRS-LFLL

Flight info

Callsign EJU862V
Flight time 0h 56m
Altitude 27000
Route LUGEN UM616 TUPAR DCT DIDRU DCT BEBIX DCT VALKU DCT LABAL DCT LESPI
Aircraft A320/M-SDE2E3FGHIJ1RWXYZ/LB1

Departure

Time 2026-05-08 01:48
Airport Nantes Atlantique Airport (LFRS)

Arrival

Time 2026-05-08 02:44
Airport Lyon Saint-Exupéry Airport (LFLL)
Time Latitude Longitude Altitude Speed Heading
2026-05-08 00:26 47.15641 -1.60113 98 ft 0 kts 46°
2026-05-08 01:42 47.15631 -1.60128 100 ft 4 kts 46°
2026-05-08 01:42 47.15612 -1.60156 98 ft 4 kts 46°
2026-05-08 01:42 47.15594 -1.60185 99 ft 4 kts 46°
2026-05-08 01:42 47.15579 -1.60208 98 ft 0 kts 46°
2026-05-08 01:44 47.15581 -1.60206 98 ft 1 kts 33°
2026-05-08 01:44 47.15596 -1.60224 99 ft 6 kts 301°
2026-05-08 01:45 47.15619 -1.60288 101 ft 9 kts 306°
2026-05-08 01:45 47.15687 -1.60382 100 ft 17 kts 318°
2026-05-08 01:45 47.15797 -1.60437 99 ft 19 kts 22°
2026-05-08 01:45 47.15932 -1.60338 94 ft 24 kts 27°
2026-05-08 01:46 47.16087 -1.60219 95 ft 26 kts 28°
2026-05-08 01:46 47.16242 -1.60100 94 ft 20 kts 27°
2026-05-08 01:46 47.16363 -1.60067 91 ft 18 kts 344°
2026-05-08 01:46 47.16450 -1.60152 88 ft 16 kts 290°
2026-05-08 01:47 47.16371 -1.60269 92 ft 32 kts 206°
2026-05-08 01:47 47.15940 -1.60599 95 ft 103 kts 207°
2026-05-08 01:47 47.15127 -1.61220 98 ft 157 kts 207°
2026-05-08 01:48 47.13057 -1.62769 1283 ft 167 kts 204°
2026-05-08 01:48 47.12019 -1.63521 1972 ft 166 kts 193°
2026-05-08 01:48 47.10908 -1.63435 2583 ft 162 kts 155°
2026-05-08 01:48 47.10041 -1.62408 3174 ft 163 kts 123°
2026-05-08 01:49 47.09578 -1.60786 3494 ft 184 kts 108°
2026-05-08 01:49 47.09170 -1.58914 3816 ft 202 kts 109°
2026-05-08 01:49 47.08698 -1.56830 4066 ft 228 kts 109°
2026-05-08 01:49 47.08167 -1.54504 4484 ft 252 kts 109°
2026-05-08 01:50 47.07595 -1.52007 5131 ft 264 kts 109°
2026-05-08 01:50 47.06848 -1.49525 5940 ft 269 kts 123°
2026-05-08 01:50 47.05654 -1.47394 6742 ft 273 kts 138°
2026-05-08 01:50 47.04216 -1.45543 7551 ft 277 kts 140°
2026-05-08 01:51 47.02759 -1.43659 8381 ft 281 kts 139°
2026-05-08 01:51 47.01290 -1.41743 9194 ft 285 kts 139°
2026-05-08 01:51 46.99801 -1.39795 10000 ft 289 kts 139°
2026-05-08 01:51 46.98250 -1.37776 10376 ft 309 kts 140°
2026-05-08 01:52 46.96589 -1.35624 10760 ft 326 kts 140°
2026-05-08 01:52 46.94880 -1.33398 11412 ft 332 kts 140°
2026-05-08 01:52 46.93143 -1.31135 12137 ft 336 kts 140°
2026-05-08 01:52 46.91410 -1.28877 12858 ft 340 kts 141°
2026-05-08 01:53 46.89606 -1.26533 13592 ft 344 kts 141°
2026-05-08 01:53 46.87831 -1.24232 14228 ft 347 kts 141°
2026-05-08 01:53 46.86012 -1.21876 14844 ft 351 kts 141°
2026-05-08 01:53 46.84156 -1.19471 15494 ft 354 kts 141°
2026-05-08 01:54 46.82332 -1.17110 16087 ft 357 kts 141°
2026-05-08 01:54 46.80468 -1.14694 16707 ft 360 kts 141°
2026-05-08 01:54 46.78586 -1.12247 17333 ft 364 kts 141°
2026-05-08 01:54 46.76686 -1.09779 17935 ft 368 kts 141°
2026-05-08 01:55 46.74765 -1.07290 18501 ft 371 kts 141°
2026-05-08 01:55 46.72824 -1.04784 19040 ft 374 kts 141°
2026-05-08 01:55 46.70867 -1.02262 19568 ft 377 kts 141°
2026-05-08 01:55 46.68897 -0.99723 20102 ft 380 kts 141°
2026-05-08 01:56 46.66915 -0.97165 20639 ft 382 kts 141°
2026-05-08 01:56 46.64918 -0.94588 21160 ft 385 kts 141°
2026-05-08 01:56 46.62906 -0.91996 21672 ft 388 kts 141°
2026-05-08 01:56 46.60877 -0.89389 22162 ft 390 kts 141°
2026-05-08 01:57 46.58836 -0.86770 22653 ft 393 kts 141°
2026-05-08 01:57 46.56779 -0.84130 23136 ft 396 kts 141°
2026-05-08 01:57 46.54710 -0.81465 23590 ft 399 kts 141°
2026-05-08 01:57 46.52628 -0.78780 23971 ft 402 kts 141°
2026-05-08 01:58 46.50529 -0.76077 24337 ft 405 kts 141°
2026-05-08 01:58 46.48410 -0.73359 24702 ft 408 kts 141°
2026-05-08 01:58 46.46277 -0.70623 25059 ft 411 kts 141°
2026-05-08 01:58 46.44181 -0.67776 25411 ft 416 kts 134°
2026-05-08 01:59 46.42385 -0.64455 25755 ft 421 kts 124°
2026-05-08 01:59 46.40956 -0.60726 26096 ft 426 kts 118°
2026-05-08 01:59 46.39612 -0.56885 26446 ft 429 kts 118°
2026-05-08 01:59 46.38253 -0.53024 26782 ft 432 kts 118°
2026-05-08 02:00 46.36879 -0.49146 26950 ft 432 kts 118°
2026-05-08 02:00 46.35530 -0.45346 26985 ft 419 kts 118°
2026-05-08 02:00 46.34203 -0.41620 26985 ft 415 kts 118°
2026-05-08 02:00 46.32884 -0.37921 26987 ft 413 kts 118°
2026-05-08 02:01 46.31566 -0.34230 26982 ft 413 kts 118°
2026-05-08 02:01 46.30249 -0.30543 26980 ft 413 kts 118°
2026-05-08 02:01 46.28932 -0.26853 26982 ft 412 kts 118°
2026-05-08 02:01 46.27617 -0.23172 26982 ft 412 kts 118°
2026-05-08 02:02 46.26317 -0.19537 26981 ft 412 kts 118°
2026-05-08 02:02 46.24983 -0.15808 26981 ft 412 kts 118°
2026-05-08 02:02 46.23681 -0.12179 26978 ft 412 kts 118°
2026-05-08 02:02 46.22359 -0.08509 26979 ft 412 kts 118°
2026-05-08 02:03 46.21031 -0.04840 26977 ft 412 kts 118°
2026-05-08 02:03 46.19705 -0.01178 26982 ft 412 kts 118°
2026-05-08 02:03 46.18454 0.02543 26982 ft 412 kts 113°
2026-05-08 02:03 46.17605 0.06489 26995 ft 413 kts 104°
2026-05-08 02:04 46.16955 0.10518 26993 ft 412 kts 104°
2026-05-08 02:04 46.16301 0.14538 26988 ft 411 kts 105°
2026-05-08 02:04 46.15639 0.18550 26985 ft 411 kts 105°
2026-05-08 02:04 46.14976 0.22551 26985 ft 411 kts 105°
2026-05-08 02:05 46.14313 0.26551 26982 ft 410 kts 105°
2026-05-08 02:05 46.13649 0.30553 26983 ft 410 kts 105°
2026-05-08 02:05 46.12985 0.34554 26981 ft 410 kts 105°
2026-05-08 02:05 46.12322 0.38547 26981 ft 410 kts 105°
2026-05-08 02:06 46.11658 0.42540 26974 ft 409 kts 106°
2026-05-08 02:06 46.10995 0.46524 26983 ft 409 kts 106°
2026-05-08 02:06 46.10330 0.50504 26990 ft 408 kts 106°
2026-05-08 02:06 46.09663 0.54471 26991 ft 407 kts 106°
2026-05-08 02:07 46.08992 0.58433 26993 ft 407 kts 106°
2026-05-08 02:07 46.08323 0.62393 26994 ft 407 kts 106°
2026-05-08 02:07 46.07656 0.66343 26996 ft 406 kts 106°
2026-05-08 02:07 46.06985 0.70293 26994 ft 406 kts 106°
2026-05-08 02:08 46.06312 0.74240 26986 ft 406 kts 106°
2026-05-08 02:08 46.05640 0.78185 26984 ft 406 kts 106°
2026-05-08 02:08 46.04966 0.82129 26976 ft 405 kts 107°
2026-05-08 02:08 46.04292 0.86064 26978 ft 405 kts 107°
2026-05-08 02:09 46.03615 0.90003 26980 ft 405 kts 107°
2026-05-08 02:09 46.02938 0.93938 26986 ft 405 kts 107°
2026-05-08 02:09 46.02262 0.97869 26986 ft 405 kts 107°
2026-05-08 02:09 46.01586 1.01800 26986 ft 405 kts 107°
2026-05-08 02:10 46.00908 1.05732 26990 ft 405 kts 107°
2026-05-08 02:10 46.00229 1.09661 26990 ft 405 kts 107°
2026-05-08 02:10 45.99545 1.13591 26989 ft 405 kts 107°
2026-05-08 02:10 45.98858 1.17513 26989 ft 405 kts 107°
2026-05-08 02:11 45.98170 1.21434 26984 ft 405 kts 107°
2026-05-08 02:11 45.97482 1.25359 26982 ft 405 kts 107°
2026-05-08 02:11 45.96793 1.29278 26984 ft 405 kts 107°
2026-05-08 02:11 45.96101 1.33200 26976 ft 405 kts 107°
2026-05-08 02:12 45.95418 1.37121 26979 ft 405 kts 104°
2026-05-08 02:12 45.95046 1.41138 26980 ft 407 kts 94°
2026-05-08 02:12 45.95123 1.45214 26981 ft 409 kts 88°
2026-05-08 02:12 45.95300 1.49284 26981 ft 409 kts 88°
2026-05-08 02:13 45.95469 1.53364 26983 ft 409 kts 88°
2026-05-08 02:13 45.95628 1.57439 26983 ft 409 kts 89°
2026-05-08 02:13 45.95783 1.61514 26978 ft 408 kts 89°
2026-05-08 02:13 45.95937 1.65590 26988 ft 408 kts 89°
2026-05-08 02:14 45.96093 1.69665 26990 ft 408 kts 89°
2026-05-08 02:14 45.96250 1.73687 26990 ft 408 kts 89°
2026-05-08 02:14 45.96405 1.77762 26990 ft 408 kts 89°
2026-05-08 02:14 45.96558 1.81836 26990 ft 408 kts 89°
2026-05-08 02:15 45.96709 1.85909 26993 ft 408 kts 89°
2026-05-08 02:15 45.96856 1.89984 26991 ft 408 kts 89°
2026-05-08 02:15 45.97000 1.94058 26991 ft 408 kts 89°
2026-05-08 02:15 45.97143 1.98134 26981 ft 408 kts 89°
2026-05-08 02:16 45.97283 2.02207 26985 ft 408 kts 89°
2026-05-08 02:16 45.97423 2.06283 26987 ft 408 kts 89°
2026-05-08 02:16 45.97565 2.10357 26988 ft 408 kts 89°
2026-05-08 02:16 45.97709 2.14433 26990 ft 408 kts 89°
2026-05-08 02:17 45.97851 2.18512 26989 ft 408 kts 89°
2026-05-08 02:17 45.97993 2.22593 26993 ft 409 kts 89°
2026-05-08 02:17 45.98130 2.26672 26994 ft 408 kts 89°
2026-05-08 02:17 45.98263 2.30746 26994 ft 408 kts 89°
2026-05-08 02:18 45.98394 2.34829 26994 ft 408 kts 89°
2026-05-08 02:18 45.98525 2.38905 26992 ft 408 kts 89°
2026-05-08 02:18 45.98655 2.42986 26987 ft 408 kts 89°
2026-05-08 02:18 45.98780 2.47010 26986 ft 409 kts 89°
2026-05-08 02:19 45.98904 2.51091 26986 ft 409 kts 89°
2026-05-08 02:19 45.99027 2.55171 26988 ft 409 kts 89°
2026-05-08 02:19 45.99152 2.59253 26991 ft 409 kts 89°
2026-05-08 02:19 45.99276 2.63338 26991 ft 409 kts 89°
2026-05-08 02:20 45.99400 2.67420 26995 ft 409 kts 89°
2026-05-08 02:20 45.99524 2.71505 26998 ft 409 kts 89°
2026-05-08 02:20 45.99644 2.75590 26998 ft 409 kts 89°
2026-05-08 02:20 45.99761 2.79672 26987 ft 409 kts 89°
2026-05-08 02:21 45.99885 2.83758 26992 ft 409 kts 89°
2026-05-08 02:21 46.00072 2.87839 26997 ft 409 kts 87°
2026-05-08 02:21 46.00229 2.90595 26999 ft 409 kts 86°
2026-05-08 02:21 46.00573 2.95995 27001 ft 409 kts 86°
2026-05-08 02:22 46.00745 2.98691 27002 ft 409 kts 86°
2026-05-08 02:22 46.00996 3.02770 27003 ft 409 kts 86°
2026-05-08 02:22 46.01233 3.06849 27004 ft 409 kts 87°
2026-05-08 02:22 46.01460 3.10930 27005 ft 409 kts 87°
2026-05-08 02:23 46.01681 3.15008 27008 ft 409 kts 87°
2026-05-08 02:23 46.01898 3.19088 26992 ft 409 kts 87°
2026-05-08 02:23 46.02113 3.23169 26993 ft 409 kts 88°
2026-05-08 02:23 46.02324 3.27250 26995 ft 409 kts 88°
2026-05-08 02:24 46.02536 3.31333 26998 ft 409 kts 88°
2026-05-08 02:24 46.02780 3.35409 26996 ft 410 kts 83°
2026-05-08 02:24 46.03308 3.39407 26750 ft 402 kts 79°
2026-05-08 02:24 46.03874 3.43308 26492 ft 395 kts 79°
2026-05-08 02:25 46.04434 3.47156 26235 ft 391 kts 79°
2026-05-08 02:25 46.04989 3.50981 25983 ft 390 kts 79°
2026-05-08 02:25 46.05541 3.54792 25732 ft 388 kts 79°
2026-05-08 02:25 46.06090 3.58590 25484 ft 387 kts 79°
2026-05-08 02:26 46.06635 3.62377 25237 ft 386 kts 79°
2026-05-08 02:26 46.07174 3.66148 24997 ft 384 kts 79°
2026-05-08 02:26 46.07711 3.69912 24754 ft 383 kts 79°
2026-05-08 02:26 46.08243 3.73659 24514 ft 382 kts 79°
2026-05-08 02:27 46.08773 3.77399 24273 ft 380 kts 79°
2026-05-08 02:27 46.09300 3.81126 24037 ft 379 kts 79°
2026-05-08 02:27 46.09821 3.84844 23802 ft 378 kts 79°
2026-05-08 02:27 46.10340 3.88552 23564 ft 377 kts 79°
2026-05-08 02:28 46.10833 3.92253 23278 ft 375 kts 83°
2026-05-08 02:28 46.10943 3.95973 22967 ft 369 kts 95°
2026-05-08 02:28 46.10562 3.99598 22523 ft 364 kts 107°
2026-05-08 02:28 46.09850 4.03077 22095 ft 360 kts 109°
2026-05-08 02:29 46.09131 4.06524 21671 ft 358 kts 109°
2026-05-08 02:29 46.08418 4.09951 21251 ft 356 kts 109°
2026-05-08 02:29 46.07713 4.13362 20835 ft 354 kts 109°
2026-05-08 02:29 46.07013 4.16757 20418 ft 353 kts 109°
2026-05-08 02:30 46.06316 4.20134 20004 ft 351 kts 109°
2026-05-08 02:30 46.05629 4.23452 19597 ft 350 kts 109°
2026-05-08 02:30 46.04933 4.26802 19189 ft 349 kts 109°
2026-05-08 02:30 46.04235 4.30142 18783 ft 348 kts 109°
2026-05-08 02:31 46.03536 4.33474 18375 ft 347 kts 109°
2026-05-08 02:31 46.02838 4.36797 17927 ft 346 kts 109°
2026-05-08 02:31 46.02144 4.40103 17529 ft 344 kts 109°
2026-05-08 02:31 46.01454 4.43385 17129 ft 342 kts 109°
2026-05-08 02:32 46.00770 4.46650 16733 ft 340 kts 109°
2026-05-08 02:32 46.00034 4.49869 16339 ft 337 kts 115°
2026-05-08 02:32 45.98920 4.52808 15954 ft 333 kts 124°
2026-05-08 02:32 45.97694 4.55631 15560 ft 332 kts 124°
2026-05-08 02:33 45.96427 4.58398 15176 ft 330 kts 131°
2026-05-08 02:33 45.94813 4.60706 14787 ft 326 kts 144°
2026-05-08 02:33 45.92886 4.62369 14410 ft 322 kts 156°
2026-05-08 02:33 45.90870 4.63767 14019 ft 322 kts 156°
2026-05-08 02:34 45.88860 4.65175 13624 ft 321 kts 155°
2026-05-08 02:34 45.86859 4.66583 13223 ft 319 kts 155°
2026-05-08 02:34 45.84872 4.67980 12849 ft 317 kts 155°
2026-05-08 02:34 45.82892 4.69369 12461 ft 315 kts 155°
2026-05-08 02:35 45.80926 4.70749 12078 ft 314 kts 155°
2026-05-08 02:35 45.78966 4.72123 11688 ft 313 kts 155°
2026-05-08 02:35 45.77019 4.73490 11283 ft 312 kts 155°
2026-05-08 02:35 45.75073 4.74850 10879 ft 311 kts 155°
2026-05-08 02:36 45.73134 4.76206 10479 ft 310 kts 155°
2026-05-08 02:36 45.71214 4.77545 10271 ft 302 kts 155°
2026-05-08 02:36 45.69362 4.78833 10045 ft 291 kts 155°
2026-05-08 02:36 45.67548 4.80091 9418 ft 288 kts 155°
2026-05-08 02:37 45.65764 4.81330 8890 ft 281 kts 155°
2026-05-08 02:37 45.64066 4.82509 8501 ft 269 kts 155°
2026-05-08 02:37 45.62394 4.83669 8130 ft 259 kts 155°
2026-05-08 02:37 45.60831 4.84778 7776 ft 252 kts 150°
2026-05-08 02:38 45.59398 4.86284 7401 ft 253 kts 137°
2026-05-08 02:38 45.58287 4.88180 7039 ft 253 kts 123°
2026-05-08 02:38 45.57380 4.90324 6670 ft 252 kts 122°
2026-05-08 02:38 45.56477 4.92454 6288 ft 251 kts 122°
2026-05-08 02:39 45.55568 4.94586 5903 ft 251 kts 122°
2026-05-08 02:39 45.54669 4.96688 5682 ft 244 kts 122°
2026-05-08 02:39 45.53792 4.98727 5454 ft 238 kts 122°
2026-05-08 02:39 45.52971 5.00755 5335 ft 237 kts 114°
2026-05-08 02:40 45.52544 5.02986 5205 ft 233 kts 96°
2026-05-08 02:40 45.52581 5.05296 4989 ft 233 kts 86°
2026-05-08 02:40 45.52747 5.07587 4673 ft 232 kts 79°
2026-05-08 02:40 45.53455 5.09623 4343 ft 233 kts 45°
2026-05-08 02:41 45.54831 5.10781 4010 ft 232 kts 12°
2026-05-08 02:41 45.56428 5.10750 3714 ft 231 kts 349°
2026-05-08 02:41 45.58016 5.10518 3415 ft 228 kts 357°
2026-05-08 02:41 45.59578 5.10401 3119 ft 220 kts 356°
2026-05-08 02:42 45.61081 5.10239 2829 ft 214 kts 355°
2026-05-08 02:42 45.62523 5.10067 2549 ft 202 kts 355°
2026-05-08 02:42 45.63872 5.09903 2304 ft 188 kts 355°
2026-05-08 02:42 45.65134 5.09750 2048 ft 176 kts 355°
2026-05-08 02:43 45.66313 5.09608 1805 ft 165 kts 355°
2026-05-08 02:43 45.67434 5.09472 1583 ft 159 kts 355°
2026-05-08 02:43 45.68528 5.09337 1363 ft 157 kts 354°
2026-05-08 02:43 45.69610 5.09199 1156 ft 155 kts 354°
2026-05-08 02:44 45.70685 5.09071 951 ft 155 kts 355°
2026-05-08 02:44 45.71743 5.08945 817 ft 143 kts
2026-05-08 02:44 45.72575 5.08850 792 ft 95 kts 355°
2026-05-08 02:44 45.73064 5.08790 790 ft 46 kts 355°
2026-05-08 02:45 45.73324 5.08757 786 ft 37 kts 355°
2026-05-08 02:45 45.73555 5.08730 781 ft 22 kts 355°
2026-05-08 02:45 45.73680 5.08652 777 ft 22 kts 291°
2026-05-08 02:45 45.73722 5.08434 777 ft 18 kts 284°
2026-05-08 02:46 45.73690 5.08271 777 ft 19 kts 210°
2026-05-08 02:46 45.73540 5.08269 780 ft 26 kts 175°
2026-05-08 02:46 45.73338 5.08292 782 ft 29 kts 176°
2026-05-08 02:46 45.73135 5.08310 785 ft 30 kts 177°
2026-05-08 02:47 45.72935 5.08333 789 ft 25 kts 171°
2026-05-08 02:47 45.72756 5.08364 791 ft 27 kts 175°
2026-05-08 02:47 45.72590 5.08384 795 ft 17 kts 174°
2026-05-08 02:47 45.72471 5.08399 796 ft 18 kts 175°
2026-05-08 02:48 45.72338 5.08415 799 ft 19 kts 175°
2026-05-08 02:48 45.72265 5.08371 799 ft 12 kts 248°
2026-05-08 02:48 45.72194 5.08317 798 ft 14 kts 179°
2026-05-08 02:48 45.72098 5.08285 797 ft 15 kts 199°
2026-05-08 02:49 45.71990 5.08240 797 ft 17 kts 195°
2026-05-08 02:49 45.71872 5.08194 797 ft 18 kts 195°
2026-05-08 02:49 45.71755 5.08124 797 ft 17 kts 215°
2026-05-08 02:49 45.71666 5.08068 798 ft 13 kts 194°
2026-05-08 02:50 45.71578 5.08034 800 ft 13 kts 195°
2026-05-08 02:50 45.71484 5.07999 799 ft 13 kts 194°
2026-05-08 02:50 45.71435 5.07930 797 ft 8 kts 266°
2026-05-08 02:50 45.71480 5.07904 796 ft 9 kts 24°
2026-05-08 02:51 45.71531 5.07901 797 ft 5 kts 332°
2026-05-08 02:51 45.71552 5.07885 796 ft 1 kts 332°